| time (UTC) | temp C | wind direction | speed KPH | gust KPH | rain 1hr cm | rain 24hr cm | rain mn cm | humidity % | barometer mb |
| 20260509211555 | 30 | 318 | 1.6 | 6.4 | 0.00 | 0.00 | 0.00 | 65 | 1009.1 |
| 20260509210031 | 30 | 62 | 1.6 | 4.8 | 0.00 | 0.00 | 0.00 | 68 | 1009.4 |
| 20260509204547 | 29 | 348 | 1.6 | 8.0 | 0.00 | 0.00 | 0.00 | 68 | 1009.6 |
| 20260509203038 | 29 | 36 | 1.6 | 6.4 | 0.00 | 0.00 | 0.00 | 70 | 1009.8 |
| 20260509201515 | 29 | 247 | 3.2 | 9.7 | 0.00 | 0.00 | 0.00 | 70 | 1010.0 |
| 20260509200043 | 29 | 103 | 0.0 | 8.0 | 0.00 | 0.00 | 0.00 | 71 | 1010.2 |
| 20260509194528 | 28 | 241 | 0.0 | 8.0 | 0.00 | 0.00 | 0.00 | 74 | 1010.5 |
| 20260509193009 | 28 | 354 | 1.6 | 6.4 | 0.00 | 0.00 | 0.00 | 76 | 1010.5 |
| 20260509191549 | 28 | 17 | 3.2 | 9.7 | 0.00 | 0.00 | 0.00 | 76 | 1010.6 |
| 20260509190040 | 28 | 296 | 1.6 | 9.7 | 0.00 | 0.00 | 0.00 | 76 | 1010.7 |
| 20260509184601 | 27 | 149 | 3.2 | 6.4 | 0.00 | 0.00 | 0.00 | 76 | 1010.8 |
| 20260509184502 | 27 | 198 | 3.2 | 6.4 | 0.00 | 0.00 | 0.00 | 79 | 1010.9 |
| 20260509183038 | 27 | 318 | 1.6 | 8.0 | 0.00 | 0.00 | 0.00 | 79 | 1011.0 |
| 20260509181509 | 27 | 350 | 1.6 | 8.0 | 0.00 | 0.00 | 0.00 | 83 | 1011.1 |
| 20260509180113 | 27 | 164 | 1.6 | 4.8 | 0.00 | 0.00 | 0.00 | 81 | 1011.4 |
| 20260509174531 | 26 | 12 | 3.2 | 8.0 | 0.00 | 0.00 | 0.00 | 83 | 1011.5 |
| 20260509173025 | 26 | 17 | 1.6 | 6.4 | 0.00 | 0.00 | 0.00 | 86 | 1011.9 |
| 20260509171554 | 25 | 164 | 3.2 | 9.7 | 0.00 | 0.00 | 0.00 | 86 | 1011.9 |
| 20260509170044 | 25 | 83 | 1.6 | 6.4 | 0.00 | 0.00 | 0.00 | 89 | 1012.0 |
| 20260509164505 | 24 | 293 | 0.0 | 4.8 | 0.00 | 0.00 | 0.00 | 90 | 1012.3 |
| 20260509163046 | 24 | 204 | 0.0 | 4.8 | 0.00 | 0.00 | 0.00 | 91 | 1012.5 |
| 20260509161531 | 24 | 193 | 0.0 | 8.0 | 0.00 | 0.00 | 0.00 | 92 | 1012.4 |
| 20260509160058 | 24 | 143 | 1.6 | 6.4 | 0.00 | 0.00 | 0.00 | 92 | 1012.3 |
| 20260509154531 | 24 | 154 | 0.0 | 6.4 | 0.00 | 0.61 | 0.00 | 94 | 1012.2 |
| 20260509153007 | 23 | 256 | 1.6 | 4.8 | 0.00 | 0.61 | 0.00 | 97 | 1011.6 |
| 20260509151549 | 23 | 275 | 1.6 | 4.8 | 0.00 | 0.61 | 0.00 | 98 | 1011.7 |
| 20260509150015 | 22 | 162 | 0.0 | 1.6 | 0.00 | 0.94 | 0.00 | 98 | 1011.6 |
| 20260509144503 | 22 | 142 | 0.0 | 3.2 | 0.00 | 0.94 | 0.00 | 98 | 1012.0 |
| 20260509143043 | 22 | 102 | 0.0 | 3.2 | 0.00 | 0.94 | 0.00 | 98 | 1011.7 |
| 20260509141537 | 22 | 177 | 0.0 | 3.2 | 0.00 | 0.94 | 0.00 | 98 | 1011.9 |
| 20260509140006 | 22 | 183 | 0.0 | 1.6 | 0.00 | 1.12 | 0.00 | 98 | 1012.0 |
| 20260509134540 | 22 | 183 | 0.0 | 3.2 | 0.00 | 1.12 | 0.00 | 98 | 1011.9 |
| 20260509133025 | 21 | 65 | 0.0 | 1.6 | 0.00 | 1.12 | 0.00 | 98 | 1012.0 |
| 20260509131507 | 21 | 65 | 0.0 | 1.6 | 0.00 | 1.12 | 0.00 | 98 | 1011.8 |
| 20260509130041 | 21 | 65 | 0.0 | 1.6 | 0.00 | 1.12 | 0.00 | 98 | 1011.9 |
| 20260509124519 | 21 | 65 | 0.0 | 0.0 | 0.00 | 1.12 | 0.00 | 98 | 1011.7 |
| 20260509123051 | 21 | 65 | 0.0 | 4.8 | 0.00 | 1.12 | 0.00 | 98 | 1011.4 |
| 20260509121544 | 21 | 198 | 0.0 | 4.8 | 0.00 | 1.12 | 0.00 | 98 | 1011.1 |
| 20260509120023 | 21 | 267 | 0.0 | 1.6 | 0.00 | 1.12 | 0.00 | 98 | 1011.4 |
| 20260509114504 | 21 | 267 | 0.0 | 3.2 | 0.00 | 1.12 | 0.00 | 98 | 1011.5 |
| 20260509113049 | 21 | 339 | 0.0 | 1.6 | 0.00 | 1.12 | 0.00 | 98 | 1011.2 |
| 20260509111535 | 21 | 339 | 0.0 | 3.2 | 0.00 | 1.12 | 0.00 | 98 | 1011.3 |
| 20260509110008 | 21 | 294 | 0.0 | 1.6 | 0.00 | 1.12 | 0.00 | 98 | 1011.3 |
| 20260509104559 | 21 | 322 | 0.0 | 3.2 | 0.00 | 1.12 | 0.00 | 98 | 1011.1 |
| 20260509103034 | 21 | 312 | 1.6 | 4.8 | 0.00 | 1.12 | 0.00 | 98 | 1010.9 |
| 20260509101533 | 21 | 82 | 0.0 | 3.2 | 0.00 | 1.12 | 0.00 | 98 | 1010.4 |
| 20260509100055 | 21 | 139 | 0.0 | 1.6 | 0.00 | 1.12 | 0.00 | 97 | 1010.8 |
| 20260509094533 | 21 | 139 | 0.0 | 0.0 | 0.00 | 1.12 | 0.00 | 97 | 1010.8 |
| 20260509093102 | 21 | 139 | 0.0 | 1.6 | 0.00 | 1.12 | 0.00 | 98 | 1011.0 |
| 20260509093001 | 21 | 23 | 0.0 | 1.6 | 0.00 | 1.12 | 0.00 | 98 | 1011.1 |
| 20260509091550 | 21 | 23 | 0.0 | 3.2 | 0.00 | 1.12 | 0.00 | 97 | 1011.3 |
| 20260509090048 | 21 | 43 | 0.0 | 3.2 | 0.00 | 1.12 | 0.00 | 97 | 1011.0 |
| 20260509084519 | 21 | 43 | 0.0 | 1.6 | 0.00 | 1.12 | 0.00 | 97 | 1011.3 |
| 20260509083002 | 21 | 73 | 0.0 | 1.6 | 0.00 | 1.12 | 0.00 | 97 | 1011.3 |
| 20260509081547 | 21 | 73 | 0.0 | 0.0 | 0.00 | 1.12 | 0.00 | 97 | 1011.4 |
| 20260509080006 | 21 | 73 | 0.0 | 1.6 | 0.00 | 1.12 | 0.00 | 97 | 1011.5 |
| 20260509074552 | 21 | 73 | 0.0 | 0.0 | 0.00 | 1.12 | 0.00 | 97 | 1011.7 |
| 20260509073041 | 21 | 73 | 0.0 | 3.2 | 0.00 | 1.12 | 0.00 | 97 | 1011.8 |
| 20260509071516 | 21 | 29 | 0.0 | 1.6 | 0.00 | 1.12 | 0.00 | 96 | 1011.9 |
| 20260509070106 | 21 | 29 | 0.0 | 1.6 | 0.00 | 1.12 | 0.00 | 96 | 1011.9 |
| 20260509064537 | 21 | 29 | 0.0 | 3.2 | 0.00 | 1.12 | 0.00 | 96 | 1011.8 |
| 20260509063016 | 21 | 137 | 0.0 | 3.2 | 0.00 | 1.12 | 0.00 | 96 | 1011.6 |
| 20260509061610 | 21 | 109 | 0.0 | 4.8 | 0.00 | 1.12 | 0.00 | 96 | 1011.4 |
| 20260509060048 | 21 | 114 | 0.0 | 3.2 | 0.00 | 1.12 | 0.00 | 96 | 1011.7 |
| 20260509054556 | 21 | 110 | 0.0 | 3.2 | 0.00 | 1.12 | 0.00 | 96 | 1011.5 |
| 20260509053037 | 21 | 51 | 0.0 | 3.2 | 0.00 | 1.12 | 0.00 | 96 | 1011.7 |
| 20260509051517 | 21 | 62 | 0.0 | 3.2 | 0.00 | 1.12 | 0.00 | 96 | 1011.6 |
| 20260509050050 | 21 | 46 | 0.0 | 1.6 | 0.00 | 1.12 | 0.00 | 95 | 1011.7 |
| 20260509044525 | 21 | 46 | 0.0 | 3.2 | 0.00 | 1.12 | 1.12 | 95 | 1011.9 |
| 20260509043004 | 21 | 28 | 0.0 | 3.2 | 0.00 | 1.12 | 1.12 | 95 | 1011.9 |
| 20260509041535 | 21 | 305 | 0.0 | 3.2 | 0.00 | 1.12 | 1.12 | 95 | 1011.9 |
| 20260509040021 | 20 | 111 | 1.6 | 4.8 | 0.00 | 1.12 | 1.12 | 96 | 1011.7 |
| 20260509034547 | 20 | 60 | 0.0 | 1.6 | 0.00 | 1.12 | 1.12 | 95 | 1011.5 |
| 20260509033033 | 20 | 71 | 0.0 | 3.2 | 0.00 | 1.12 | 1.12 | 95 | 1011.3 |
| 20260509031519 | 20 | 94 | 0.0 | 1.6 | 0.00 | 1.12 | 1.12 | 94 | 1011.3 |
| 20260509030057 | 20 | 99 | 0.0 | 3.2 | 0.00 | 1.12 | 1.12 | 94 | 1011.2 |
| 20260509024547 | 20 | 27 | 1.6 | 6.4 | 0.00 | 1.12 | 1.12 | 94 | 1011.0 |
| 20260509023033 | 20 | 102 | 1.6 | 6.4 | 0.00 | 1.12 | 1.12 | 94 | 1010.7 |
| 20260509021555 | 20 | 231 | 1.6 | 6.4 | 0.00 | 1.12 | 1.12 | 94 | 1010.6 |
| 20260509020049 | 20 | 89 | 1.6 | 6.4 | 0.00 | 1.12 | 1.12 | 94 | 1010.2 |
| 20260509014538 | 20 | 123 | 0.0 | 1.6 | 0.00 | 1.12 | 1.12 | 94 | 1010.3 |
| 20260509013005 | 20 | 123 | 0.0 | 0.0 | 0.00 | 1.12 | 1.12 | 93 | 1010.3 |
| 20260509011531 | 21 | 130 | 0.0 | 4.8 | 0.00 | 1.12 | 1.12 | 91 | 1010.3 |
| 20260509010015 | 21 | 110 | 0.0 | 6.4 | 0.00 | 1.12 | 1.12 | 89 | 1010.6 |
| 20260509004557 | 22 | 113 | 0.0 | 3.2 | 0.00 | 1.12 | 1.12 | 88 | 1010.6 |
| 20260509003044 | 22 | 296 | 0.0 | 4.8 | 0.00 | 1.12 | 1.12 | 87 | 1010.7 |
| 20260509001531 | 23 | 157 | 0.0 | 3.2 | 0.00 | 1.12 | 1.12 | 87 | 1011.1 |
| 20260509000009 | 23 | 75 | 0.0 | 1.6 | 0.00 | 1.12 | 1.12 | 86 | 1011.2 |
| 20260508234538 | 23 | 75 | 0.0 | 6.4 | 0.00 | 1.12 | 1.12 | 86 | 1011.3 |
| 20260508233027 | 23 | 92 | 1.6 | 8.0 | 0.00 | 1.12 | 1.12 | 85 | 1011.1 |
| 20260508231509 | 23 | 142 | 0.0 | 6.4 | 0.00 | 1.12 | 1.12 | 84 | 1010.9 |
| 20260508230041 | 23 | 81 | 1.6 | 6.4 | 0.00 | 1.12 | 1.12 | 83 | 1011.1 |
| 20260508224517 | 23 | 75 | 3.2 | 6.4 | 0.00 | 1.12 | 1.12 | 83 | 1011.0 |
| 20260508223003 | 23 | 70 | 1.6 | 8.0 | 0.00 | 1.12 | 1.12 | 83 | 1011.1 |
| 20260508221547 | 23 | 37 | 1.6 | 9.7 | 0.00 | 1.12 | 1.12 | 84 | 1011.2 |
| 20260508220035 | 23 | 143 | 1.6 | 8.0 | 0.00 | 1.12 | 1.12 | 83 | 1011.3 |
| 20260508214516 | 22 | 95 | 1.6 | 4.8 | 0.00 | 1.12 | 1.12 | 86 | 1011.3 |
| 20260508213049 | 22 | 80 | 1.6 | 6.4 | 0.00 | 1.12 | 1.12 | 85 | 1011.5 |